Location: Bovenkerk
(52.2915°N, 4.8336°E)
Time: 22:37:02
(UTC+00:00)

Cosmos 2151 - Pass Details

Date: 09 April 2020
Orbit: 582 x 600 km, 82.5° (Epoch: 29 May)

Event Time Altitude Azimuth Distance (km) Brightness Sun altitude
Rises 21:00:15 0° 348° (NNW) 2,820 7.4 -20.5°
Reaches altitude 10° 21:02:27 10° 347° (NNW) 1,915 6.4 -20.8°
Maximum altitude 21:06:40 79° 262° (W) 602 2.9 -21.2°
Enters shadow 21:07:32 55° 188° (S) 706 3.0 -21.3°
